Regional Weather Roundup
Issued by NWS Jackson, KY

Home | Current Version | Previous Version | Graphics & Text | Print | Product List | Glossary On
Versions: 1 2 3 4 5 6 7 8 9 10 11 12 13 14 15 16 17 18 19 20 21 22 23 24 25 26 27 28 29 30 31 32 33 34 35 36 37 38 39 40 41 42 43 44 45 46 47 48 49 50
000
ASUS43 KJKL 242310
RWRJKL

EAST KENTUCKY HOURLY WEATHER ROUNDUP
NATIONAL WEATHER SERVICE JACKSON KY
700 PM EDT FRI APR 24 2015

NOTE: "FAIR" INDICATES FEW OR NO CLOUDS BELOW 12,000 FEET WITH
NO SIGNIFICANT WEATHER AND/OR OBSTRUCTIONS TO VISIBILITY.

* THESE REPORTS ARE NOT UNDER NWS QUALITY CONTROL AND MAY NOT
  REPORT WEATHER SUCH AS PRECIPITATION AND FOG.

KYZ079-080-083-085-087-088-110-112-115-119-120-250000
...EASTERN KENTUCKY...

CITY           SKY/WX    TMP DP  RH WIND       PRES   REMARKS
JACKSON        PTSUNNY   62  21  20 CALM      29.99S
LONDON         CLOUDY    65  14  14 CALM      29.98F
SOMERSET*      PTSUNNY   61  30  31 NE3       29.98F
MONTICELLO*    CLOUDY    64  31  29 N6        30.00F
MIDDLESBORO*   CLOUDY    65  30  26 S5        29.98F
HARLAN APT*    MOCLDY    64  18  16 NW3       29.99R
HAZARD APT*    CLEAR     63  25  23 CALM      29.99S
BLACK MTN*       N/A     55  21  26 S2          N/A
PIKEVILLE APT* SUNNY     59  25  27 CALM      30.00R
BIG SANDY*     PTCLDY    60  22  22 CALM      30.00R
MOREHEAD APT*  MOCLDY    61  19  20 NW3       30.01F
$$

KYZ035-036-041-042-044-050-067-078-099-250000
...CENTRAL KENTUCKY...

CITY           SKY/WX    TMP DP  RH WIND       PRES   REMARKS
MT STERLING*   MOSUNNY   59  30  33 CALM      30.00F
FLEMING/MASON* CLOUDY    57  32  38 CALM      30.00F
DANVILLE*      CLOUDY    59  34  38 E3        29.98F
RICHMOND*      CLOUDY    61  28  29 CALM      29.98F
LEXINGTON      PTSUNNY   59  29  31 SE3       29.97F
FRANKFORT      PTSUNNY   59  28  30 E7        29.96F
$$

KYZ091>093-OHZ055-061-077-WVZ005-015-034-035-042-250000
...SOUTHERN OHIO/WEST VIRGINIA...

CITY           SKY/WX    TMP DP  RH WIND       PRES   REMARKS
COVINGTON      CLOUDY    58  31  35 S7        29.97F
COLUMBUS       CLOUDY    56  25  30 NW3       29.98F
DAYTON         CLOUDY    58  29  33 S7        29.98F
WILMINGTON     PTSUNNY   56  27  32 S6        29.99S
HUNTINGTON     PTSUNNY   59  23  25 CALM      29.99S
CHARLESTON     PTSUNNY   59  17  19 CALM      29.99F
PINEVILLE*     PTSUNNY   61  21  22 MISG      30.03S
BECKLEY        PTSUNNY   55  16  21 N8        29.98F
BLUEFIELD      MOSUNNY   59  12  15 W6        29.99S
$$

VAZ002-007-008-TNZ017-027-036-066-071-250000
...SOUTHWEST VIRGINIA/EAST TENNESSEE...

CITY           SKY/WX    TMP DP  RH WIND       PRES   REMARKS
WISE*          PTSUNNY   61  12  15 N3        30.01S
JONESVILLE*    MOCLDY    64  27  24 W3        30.01R
ABINGDON*      MOSUNNY   62  26  24 SW6       29.99S
BRISTOL        PTSUNNY   63  27  25 CALM      29.99S
KNOXVILLE      CLOUDY    63  31  30 CALM      29.98F
OAK RIDGE      CLOUDY    66  27  23 S3        29.99F
CROSSVILLE     CLOUDY    63  30  28 S5        29.99F
NASHVILLE      CLOUDY    62  38  40 S6        29.96F
$$

...KEY TO REMARKS...
VSB - VISIBILITY IN MILES
WCI - WIND CHILL INDEX
HX  - HEAT INDEX

$$



USA.gov is the U.S. government's official web portal to all federal, state and local government web resources and services.